Weather History for LHPA - December, 2013

Change the Weather History Date:

Thursday, December 5, 2013

  Actual Average Record
Temperature  
Mean Temperature 36 °F -  
Max Temperature 42 °F - - ()
Min Temperature 30 °F - - ()
Degree Days  
Heating Degree Days 29    
Moisture  
Dew Point 31 °F    
Average Humidity 76    
Maximum Humidity 93    
Minimum Humidity 61    
Precipitation  
Precipitation 0.00 in - - ()
Sea Level Pressure  
Sea Level Pressure 30.18 in    
Wind  
Wind Speed 9 mph ()    
Max Wind Speed 20 mph    
Max Gust Speed -    
Visibility 5.9 miles    
Events      
T = Trace of Precipitation, MM = Missing Value Source: Averaged Metar Reports

Daily Weather History Graph

Daily Weather History Graph

Search for Another Location

Airport or City:

Trip Planner

Search our weather history database for the weather conditions in past years. The results will help you decide how hot, cold, wet, or windy it might be!

Date:

Astronomy

Dec. 05, 2013 Rise Set
Actual Time 7:21 AM CET 4:00 PM CET
Civil Twilight 6:45 AM CET 4:35 PM CET
Nautical Twilight 6:07 AM CET 5:14 PM CET
Astronomical Twilight 5:30 AM CET 5:51 PM CET
Moon 9:21 AM CET 7:05 PM CET
Length of Visible Light 9h 49m
Length of Day
8h 39m
Waxing Crescent, 9% of the Moon is Illuminated
Dec 5
Waxing Crescent
Dec 9
First Quarter
Dec 17
Full
Dec 25
Last Quarter
Jan 1
New

Hourly Weather History & Observations

Time (CET) Temp. Windchill Dew Point Humidity Pressure Visibility Wind Dir Wind Speed Gust Speed Precip Events Conditions
12:15 AM 30.2 °F 23.5 °F 28.4 °F 93% 30.24 in 3.7 mi NE 6.7 mph - N/A   Unknown
12:45 AM 35.6 °F 27.7 °F 30.2 °F 81% 30.24 in 5.0 mi North 11.2 mph - N/A   Unknown
1:15 AM 35.6 °F 25.3 °F 30.2 °F 81% 30.24 in 5.0 mi North 17.9 mph - N/A   Unknown
1:45 AM 35.6 °F 27.7 °F 30.2 °F 81% 30.24 in 5.0 mi North 11.2 mph - N/A   Scattered Clouds
2:15 AM 35.6 °F 31.8 °F 30.2 °F 81% 30.24 in 5.0 mi NNE 4.5 mph - N/A   Scattered Clouds
2:45 AM 35.6 °F 30.0 °F 30.2 °F 81% 30.27 in 5.0 mi NNE 6.7 mph - N/A   Mostly Cloudy
3:15 AM 37.4 °F 33.9 °F 30.2 °F 75% 30.27 in 5.0 mi North 4.5 mph - N/A   Mostly Cloudy
3:45 AM 37.4 °F 32.2 °F 32.0 °F 81% 30.27 in 6.2 mi NNW 6.7 mph - N/A   Mostly Cloudy
4:15 AM 37.4 °F 33.9 °F 30.2 °F 75% 30.27 in 6.2 mi North 4.5 mph - N/A   Mostly Cloudy
4:45 AM 37.4 °F 33.9 °F 30.2 °F 75% 30.27 in 6.2 mi NNW 4.5 mph - N/A   Mostly Cloudy
5:15 AM 39.2 °F 33.1 °F 32.0 °F 75% 30.27 in 6.2 mi NW 8.9 mph - N/A   Mostly Cloudy
5:45 AM 35.6 °F 31.8 °F 30.2 °F 81% 30.27 in 6.2 mi West 4.5 mph - N/A   Mostly Cloudy
6:15 AM 37.4 °F 32.2 °F 30.2 °F 75% 30.30 in 6.2 mi WNW 6.7 mph - N/A   Mostly Cloudy
6:45 AM 37.4 °F 33.9 °F 30.2 °F 75% 30.30 in 6.2 mi WNW 4.5 mph - N/A   Mostly Cloudy
7:15 AM 37.4 °F 33.9 °F 30.2 °F 75% 30.30 in 6.2 mi NW 4.5 mph - N/A   Mostly Cloudy
7:45 AM 39.2 °F 33.1 °F 32.0 °F 75% 30.30 in 6.2 mi NNW 8.9 mph - N/A   Mostly Cloudy
8:15 AM 39.2 °F 32.2 °F 32.0 °F 75% 30.30 in 6.2 mi NNW 11.2 mph - N/A   Mostly Cloudy
8:45 AM 39.2 °F 30.0 °F 33.8 °F 81% 30.33 in 6.2 mi NNW 17.9 mph - N/A   Mostly Cloudy
9:15 AM 41.0 °F 33.6 °F 33.8 °F 76% 30.33 in 6.2 mi North 13.4 mph - N/A   Mostly Cloudy
9:45 AM 41.0 °F 34.4 °F 33.8 °F 76% 30.33 in 6.2 mi NNW 11.2 mph - N/A   Mostly Cloudy
10:15 AM 41.0 °F 33.6 °F 33.8 °F 76% 30.33 in 6.2 mi NNW 13.4 mph - N/A   Mostly Cloudy
10:45 AM 42.8 °F 35.9 °F 33.8 °F 70% 30.33 in 6.2 mi NNW 13.4 mph - N/A   Mostly Cloudy
11:15 AM 42.8 °F 35.2 °F 32.0 °F 66% 30.30 in 6.2 mi NNW 15.7 mph - N/A   Mostly Cloudy
11:45 AM 42.8 °F 35.9 °F 33.8 °F 70% 30.30 in 6.2 mi NNW 13.4 mph - N/A   Mostly Cloudy
12:15 PM 42.8 °F 36.7 °F 32.0 °F 66% 30.27 in 6.2 mi NNW 11.2 mph - N/A   Mostly Cloudy
12:45 PM 42.8 °F 38.7 °F 32.0 °F 66% 30.27 in 6.2 mi NNW 6.7 mph - N/A   Mostly Cloudy
1:15 PM 41.0 °F - 32.0 °F 70% 30.24 in 6.2 mi ENE 2.2 mph - N/A   Scattered Clouds
1:45 PM 42.8 °F - 32.0 °F 66% 30.24 in - NE 2.2 mph - N/A   Clear
2:15 PM 42.8 °F 40.2 °F 32.0 °F 66% 30.21 in - SSW 4.5 mph - N/A   Clear
2:45 PM 42.8 °F 38.7 °F 30.2 °F 61% 30.21 in - South 6.7 mph - N/A   Clear
3:15 PM 39.2 °F 34.4 °F 30.2 °F 70% 30.18 in - SSW 6.7 mph - N/A   Clear
3:45 PM 41.0 °F 34.4 °F 32.0 °F 70% 30.18 in - SSW 11.2 mph - N/A   Clear
4:15 PM 39.2 °F 32.2 °F 32.0 °F 75% 30.15 in 6.2 mi SSW 11.2 mph - N/A   Mostly Cloudy
4:45 PM 39.2 °F 32.2 °F 33.8 °F 81% 30.15 in 6.2 mi SSW 11.2 mph - N/A   Mostly Cloudy
5:15 PM 37.4 °F 29.9 °F 32.0 °F 81% 30.12 in 6.2 mi South 11.2 mph - N/A   Mostly Cloudy
5:45 PM 37.4 °F 29.9 °F 32.0 °F 81% 30.12 in 6.2 mi South 11.2 mph - N/A   Mostly Cloudy
6:15 PM 35.6 °F 27.7 °F 30.2 °F 81% 30.09 in - South 11.2 mph - N/A   Clear
6:45 PM 37.4 °F 28.3 °F 30.2 °F 75% 30.06 in - South 15.7 mph - N/A   Clear
7:15 PM 35.6 °F 26.8 °F 30.2 °F 81% 30.04 in - South 13.4 mph - N/A   Clear
7:45 PM 35.6 °F 26.0 °F 30.2 °F 81% 30.01 in - South 15.7 mph - N/A   Clear
8:15 PM 35.6 °F 25.3 °F 30.2 °F 81% 30.01 in - South 17.9 mph - N/A   Clear
8:45 PM 35.6 °F 25.3 °F 30.2 °F 81% 29.98 in - South 17.9 mph - N/A   Clear
9:15 PM 37.4 °F 27.0 °F 30.2 °F 75% 29.95 in - South 20.1 mph - N/A   Clear
9:45 PM 37.4 °F 27.0 °F 30.2 °F 75% 29.92 in - South 20.1 mph - N/A   Clear
10:15 PM 37.4 °F 27.6 °F 30.2 °F 75% 29.89 in - South 17.9 mph - N/A   Clear
10:45 PM 37.4 °F 29.1 °F 30.2 °F 75% 29.89 in - South 13.4 mph - N/A   Clear
11:15 PM 37.4 °F 29.9 °F 30.2 °F 75% 29.86 in - SSW 11.2 mph - N/A   Clear
11:45 PM 35.6 °F 26.8 °F 30.2 °F 81% 29.86 in - South 13.4 mph - N/A   Clear